COOK73 ZPPP-VAAU

Flight info

Callsign COOK73
Flight time N/A
Altitude 36000
Route GULOT1Y GULOT A599 LINSO/N0450F360 A599 CTG B465 CEA J46 JRS W160 OGUNA Z14 OSVAS Q20 LUXIP
Aircraft C25C/M-SDE2E3FGHRWXY/LB1

Departure

Time 2026-05-05 19:48
Airport Kunming Changshui International Airport (ZPPP)

Arrival

Time N/A
Airport Aurangabad Airport (VAAU)
Time Latitude Longitude Altitude Speed Heading
2026-05-05 19:23 25.10043 102.92222 6890 ft 0 kts 216°
2026-05-05 19:33 25.10053 102.92230 6891 ft 6 kts 216°
2026-05-05 19:33 25.10085 102.92256 6890 ft 6 kts 217°
2026-05-05 19:34 25.10105 102.92275 6890 ft 2 kts 232°
2026-05-05 19:34 25.10108 102.92286 6891 ft 2 kts 290°
2026-05-05 19:34 25.10106 102.92291 6891 ft 0 kts 307°
2026-05-05 19:36 25.10111 102.92284 6891 ft 4 kts 307°
2026-05-05 19:36 25.10140 102.92261 6890 ft 5 kts 322°
2026-05-05 19:36 25.10163 102.92231 6890 ft 6 kts 308°
2026-05-05 19:36 25.10191 102.92192 6890 ft 8 kts 308°
2026-05-05 19:37 25.10229 102.92141 6891 ft 9 kts 309°
2026-05-05 19:37 25.10291 102.92125 6891 ft 11 kts 30°
2026-05-05 19:37 25.10358 102.92180 6891 ft 13 kts 37°
2026-05-05 19:37 25.10436 102.92242 6891 ft 15 kts 38°
2026-05-05 19:38 25.10521 102.92315 6891 ft 16 kts 36°
2026-05-05 19:38 25.10606 102.92384 6890 ft 14 kts 38°
2026-05-05 19:38 25.10679 102.92449 6890 ft 13 kts 40°
2026-05-05 19:38 25.10742 102.92507 6890 ft 11 kts 38°
2026-05-05 19:39 25.10800 102.92556 6890 ft 10 kts 38°
2026-05-05 19:39 25.10850 102.92597 6890 ft 9 kts 36°
2026-05-05 19:39 25.10895 102.92634 6890 ft 8 kts 36°
2026-05-05 19:39 25.10938 102.92670 6890 ft 8 kts 37°
2026-05-05 19:40 25.10992 102.92715 6890 ft 10 kts 38°
2026-05-05 19:40 25.11054 102.92767 6890 ft 12 kts 38°
2026-05-05 19:40 25.11123 102.92827 6890 ft 13 kts 39°
2026-05-05 19:40 25.11190 102.92889 6891 ft 12 kts 40°
2026-05-05 19:41 25.11257 102.92907 6891 ft 9 kts 335°
2026-05-05 19:41 25.11310 102.92883 6891 ft 8 kts
2026-05-05 19:41 25.11364 102.92916 6891 ft 9 kts 39°
2026-05-05 19:41 25.11414 102.92962 6891 ft 10 kts 39°
2026-05-05 19:42 25.11469 102.93012 6891 ft 11 kts 39°
2026-05-05 19:42 25.11530 102.93064 6891 ft 12 kts 37°
2026-05-05 19:42 25.11599 102.93121 6891 ft 13 kts 37°
2026-05-05 19:42 25.11675 102.93185 6891 ft 14 kts 38°
2026-05-05 19:43 25.11756 102.93255 6890 ft 15 kts 38°
2026-05-05 19:43 25.11840 102.93331 6890 ft 16 kts 40°
2026-05-05 19:43 25.11928 102.93414 6890 ft 17 kts 41°
2026-05-05 19:43 25.12020 102.93500 6890 ft 18 kts 40°
2026-05-05 19:44 25.12116 102.93587 6890 ft 18 kts 39°
2026-05-05 19:44 25.12215 102.93676 6891 ft 19 kts 39°
2026-05-05 19:44 25.12318 102.93766 6891 ft 19 kts 38°
2026-05-05 19:44 25.12426 102.93859 6890 ft 20 kts 38°
2026-05-05 19:45 25.12534 102.93952 6890 ft 19 kts 38°
2026-05-05 19:45 25.12633 102.94037 6890 ft 17 kts 38°
2026-05-05 19:45 25.12722 102.94113 6890 ft 15 kts 37°
2026-05-05 19:45 25.12801 102.94180 6890 ft 13 kts 37°
2026-05-05 19:46 25.12871 102.94238 6890 ft 12 kts 38°
2026-05-05 19:46 25.12937 102.94274 6890 ft 10 kts 354°
2026-05-05 19:46 25.12986 102.94233 6890 ft 9 kts 310°
2026-05-05 19:46 25.13023 102.94183 6889 ft 8 kts 310°
2026-05-05 19:47 25.13037 102.94133 6888 ft 7 kts 228°
2026-05-05 19:47 25.13034 102.94130 6888 ft 0 kts 222°
2026-05-05 19:47 25.12937 102.94046 6888 ft 48 kts 218°
2026-05-05 19:48 25.12461 102.93637 6891 ft 122 kts 217°
2026-05-05 19:48 25.11764 102.93088 7570 ft 120 kts 215°
2026-05-05 19:48 25.10846 102.92552 7640 ft 174 kts 209°
2026-05-05 19:48 25.09918 102.91578 8080 ft 202 kts 235°
2026-05-05 19:49 25.09116 102.90238 8805 ft 209 kts 240°
2026-05-05 19:49 25.08590 102.89333 9588 ft 204 kts 239°
2026-05-05 19:49 25.07502 102.87661 10833 ft 204 kts 237°
2026-05-05 19:49 25.06637 102.86394 11596 ft 209 kts 237°
2026-05-05 19:50 25.05754 102.85104 12400 ft 212 kts 238°
2026-05-05 19:50 25.04860 102.83787 13185 ft 217 kts 238°
2026-05-05 19:50 25.03953 102.82446 13941 ft 220 kts 238°
2026-05-05 19:50 25.03029 102.81083 14590 ft 223 kts 238°
2026-05-05 19:51 25.02090 102.79702 15255 ft 227 kts 237°
2026-05-05 19:51 25.01139 102.78300 15926 ft 230 kts 237°
2026-05-05 19:51 25.00174 102.76879 16596 ft 233 kts 237°
2026-05-05 19:51 24.99195 102.75441 17266 ft 236 kts 237°
2026-05-05 19:52 24.98247 102.73950 17894 ft 238 kts 245°
2026-05-05 19:52 24.97775 102.72215 18512 ft 238 kts 263°
2026-05-05 19:52 24.97876 102.70386 19058 ft 242 kts 282°
2026-05-05 19:52 24.98553 102.68699 19603 ft 248 kts 298°
2026-05-05 19:53 24.99462 102.67072 20151 ft 250 kts 298°
2026-05-05 19:53 25.00386 102.65432 20706 ft 253 kts 299°
2026-05-05 19:53 25.01315 102.63778 21262 ft 255 kts 300°
2026-05-05 19:53 25.02252 102.62102 21798 ft 258 kts 300°
2026-05-05 19:54 25.03204 102.60416 22314 ft 260 kts 300°
2026-05-05 19:54 25.04161 102.58717 22873 ft 262 kts 301°
2026-05-05 19:54 25.05129 102.57003 23414 ft 265 kts 301°
2026-05-05 19:54 25.06107 102.55270 23907 ft 267 kts 301°
2026-05-05 19:55 25.06932 102.53437 24358 ft 269 kts 286°
2026-05-05 19:55 25.07173 102.51389 24815 ft 273 kts 269°
2026-05-05 19:55 25.06775 102.49328 25278 ft 279 kts 251°
2026-05-05 19:55 25.05897 102.47397 25728 ft 283 kts 246°
2026-05-05 19:56 25.04976 102.45468 26207 ft 285 kts 246°
2026-05-05 19:56 25.04048 102.43528 26664 ft 286 kts 246°
2026-05-05 19:56 25.03123 102.41579 27108 ft 288 kts 246°
2026-05-05 19:56 25.02195 102.39615 27576 ft 290 kts 246°
2026-05-05 19:57 25.01256 102.37639 28038 ft 292 kts 246°
2026-05-05 19:57 25.00631 102.36325 28349 ft 293 kts 246°
2026-05-05 19:57 24.99367 102.33667 29077 ft 291 kts 246°
2026-05-05 19:57 24.98428 102.31693 29638 ft 290 kts 246°
2026-05-05 19:58 24.97507 102.29757 30178 ft 288 kts 245°
2026-05-05 19:58 24.96579 102.27805 30657 ft 287 kts 246°
2026-05-05 19:58 24.95654 102.25866 31139 ft 285 kts 246°
2026-05-05 19:58 24.94737 102.23937 31618 ft 283 kts 246°
2026-05-05 19:59 24.93825 102.22023 32095 ft 282 kts 246°
2026-05-05 19:59 24.92915 102.20117 32584 ft 280 kts 246°
2026-05-05 19:59 24.92012 102.18221 33053 ft 279 kts 246°
2026-05-05 19:59 24.91111 102.16334 33527 ft 277 kts 247°
2026-05-05 20:00 24.90216 102.14456 34008 ft 276 kts 247°
2026-05-05 20:00 24.89323 102.12591 34403 ft 275 kts 247°
2026-05-05 20:00 24.88434 102.10727 34800 ft 274 kts 247°
2026-05-05 20:00 24.87552 102.08881 35219 ft 272 kts 247°
2026-05-05 20:01 24.86672 102.07041 35627 ft 271 kts 247°
2026-05-05 20:01 24.85792 102.05203 35956 ft 273 kts 247°
2026-05-05 20:01 24.84894 102.03318 36037 ft 283 kts 246°
2026-05-05 20:01 24.83956 102.01354 36057 ft 297 kts 246°
2026-05-05 20:02 24.82973 101.99301 36056 ft 310 kts 246°
2026-05-05 20:02 24.81959 101.97187 36059 ft 323 kts 245°
2026-05-05 20:02 24.80892 101.94963 36060 ft 334 kts 246°
2026-05-05 20:02 24.79791 101.92664 36053 ft 345 kts 246°
2026-05-05 20:03 24.78654 101.90298 36049 ft 354 kts 245°
2026-05-05 20:03 24.76298 101.85394 36048 ft 371 kts 245°
2026-05-05 20:04 24.73845 101.80291 36040 ft 384 kts 245°
2026-05-05 20:04 24.71313 101.75028 36034 ft 394 kts 245°
2026-05-05 20:05 24.68723 101.69654 36037 ft 401 kts 245°
2026-05-05 20:05 24.66084 101.64185 36021 ft 408 kts 245°
2026-05-05 20:06 24.63861 101.59579 36005 ft 412 kts 245°
2026-05-05 20:06 24.61153 101.53990 36016 ft 416 kts 244°
2026-05-05 20:07 24.58370 101.48381 36010 ft 420 kts 244°
2026-05-05 20:07 24.55584 101.42713 36009 ft 422 kts 244°
2026-05-05 20:08 24.52767 101.37017 36007 ft 424 kts 244°
2026-05-05 20:08 24.49979 101.31374 36006 ft 417 kts 244°
2026-05-05 20:09 24.47221 101.25802 35997 ft 413 kts 244°
2026-05-05 20:09 24.44488 101.20286 36001 ft 409 kts 244°
2026-05-05 20:10 24.41793 101.14849 35990 ft 406 kts 244°
2026-05-05 20:10 24.39092 101.09414 35985 ft 404 kts 244°
2026-05-05 20:11 24.36404 101.04007 35986 ft 403 kts 244°
2026-05-05 20:11 24.33725 100.98626 35982 ft 401 kts 244°
2026-05-05 20:12 24.31051 100.93253 35979 ft 401 kts 244°
2026-05-05 20:12 24.28377 100.87897 35976 ft 400 kts 244°
2026-05-05 20:13 24.25730 100.82598 35965 ft 398 kts 244°
2026-05-05 20:13 24.23073 100.77281 35970 ft 398 kts 244°
2026-05-05 20:14 24.20418 100.71976 35969 ft 397 kts 244°
2026-05-05 20:14 24.17767 100.66687 35957 ft 396 kts 244°
2026-05-05 20:15 24.15112 100.61395 35955 ft 397 kts 244°
2026-05-05 20:15 24.12447 100.56089 35960 ft 398 kts 244°
2026-05-05 20:16 24.09746 100.50787 35947 ft 399 kts 243°
2026-05-05 20:16 24.07027 100.45490 35942 ft 399 kts 243°
2026-05-05 20:17 24.04319 100.40191 35939 ft 399 kts 243°
2026-05-05 20:17 24.01600 100.34896 35940 ft 400 kts 243°
2026-05-05 20:18 23.98876 100.29591 35935 ft 400 kts 243°
2026-05-05 20:18 23.96153 100.24292 35936 ft 399 kts 243°
2026-05-05 20:19 23.93447 100.19031 35933 ft 400 kts 243°
2026-05-05 20:19 23.90714 100.13726 35929 ft 400 kts 243°
2026-05-05 20:20 23.87983 100.08429 35927 ft 400 kts 243°
2026-05-05 20:20 23.85251 100.03139 35933 ft 399 kts 243°
2026-05-05 20:21 23.82520 99.97853 35925 ft 399 kts 243°
2026-05-05 20:21 23.79794 99.92582 35929 ft 399 kts 243°
2026-05-05 20:22 23.77054 99.87293 35926 ft 401 kts 243°
2026-05-05 20:22 23.74308 99.81999 35931 ft 400 kts 243°
2026-05-05 20:23 23.71564 99.76711 35940 ft 400 kts 243°
2026-05-05 20:23 23.68833 99.71455 35938 ft 400 kts 243°
2026-05-05 20:24 23.66087 99.66175 35928 ft 400 kts 243°
2026-05-05 20:24 23.63340 99.60898 35938 ft 400 kts 243°
2026-05-05 20:25 23.60587 99.55619 35935 ft 400 kts 243°
2026-05-05 20:25 23.57838 99.50348 35937 ft 400 kts 243°
2026-05-05 20:26 23.55082 99.45075 35936 ft 400 kts 243°
2026-05-05 20:26 23.52567 99.39695 35932 ft 397 kts 250°
2026-05-05 20:27 23.50779 99.34013 35932 ft 396 kts 252°
2026-05-05 20:27 23.48999 99.28356 35939 ft 394 kts 253°
2026-05-05 20:28 23.47252 99.22737 35935 ft 394 kts 253°
2026-05-05 20:28 23.45478 99.17075 35940 ft 395 kts 252°
2026-05-05 20:29 23.43703 99.11401 35933 ft 396 kts 253°
2026-05-05 20:29 23.41922 99.05731 35922 ft 396 kts 252°
2026-05-05 20:30 23.40144 99.00068 35931 ft 395 kts 252°
2026-05-05 20:30 23.38360 98.94400 35923 ft 395 kts 252°
2026-05-05 20:31 23.36531 98.88768 35927 ft 395 kts 251°
2026-05-05 20:31 23.34663 98.83196 35915 ft 394 kts 252°
2026-05-05 20:32 23.32786 98.77588 35921 ft 395 kts 251°
2026-05-05 20:32 23.30903 98.71983 35915 ft 395 kts 251°
2026-05-05 20:33 23.29024 98.66389 35916 ft 393 kts 251°
2026-05-05 20:33 23.27145 98.60809 35912 ft 393 kts 251°
2026-05-05 20:34 23.25266 98.55229 35913 ft 393 kts 251°
2026-05-05 20:34 23.23384 98.49656 35915 ft 393 kts 251°
2026-05-05 20:35 23.21500 98.44079 35908 ft 393 kts 251°
2026-05-05 20:35 23.19613 98.38499 35911 ft 393 kts 251°
2026-05-05 20:36 23.17724 98.32924 35908 ft 393 kts 251°
2026-05-05 20:36 23.15836 98.27362 35905 ft 392 kts 251°
2026-05-05 20:37 23.13958 98.21832 35907 ft 393 kts 251°
2026-05-05 20:37 23.12065 98.16266 35906 ft 393 kts 251°
2026-05-05 20:38 23.10165 98.10690 35901 ft 393 kts 250°
2026-05-05 20:38 23.08263 98.05112 35899 ft 394 kts 251°
2026-05-05 20:39 23.06362 97.99542 35899 ft 394 kts 251°
2026-05-05 20:39 23.04455 97.93972 35894 ft 393 kts 251°
2026-05-05 20:40 23.02549 97.88400 35894 ft 393 kts 251°
2026-05-05 20:40 23.00641 97.82835 35887 ft 393 kts 251°
2026-05-05 20:41 22.98756 97.77262 35888 ft 393 kts 253°
2026-05-05 20:41 22.97689 97.71461 35881 ft 393 kts 263°
2026-05-05 20:42 22.97078 97.65573 35881 ft 393 kts 263°
2026-05-05 20:42 22.96468 97.59720 35881 ft 393 kts 263°
2026-05-05 20:43 22.95855 97.53836 35887 ft 393 kts 263°
2026-05-05 20:43 22.95237 97.47935 35894 ft 393 kts 263°
2026-05-05 20:44 22.94618 97.42048 35897 ft 393 kts 263°
2026-05-05 20:44 22.93997 97.36160 35897 ft 393 kts 263°
2026-05-05 20:45 22.93059 97.27323 35902 ft 393 kts 263°
2026-05-05 20:45 22.92434 97.21432 35904 ft 393 kts 263°
2026-05-05 20:46 22.91804 97.15531 35901 ft 394 kts 262°
2026-05-05 20:46 22.91171 97.09627 35901 ft 394 kts 262°
2026-05-05 20:47 22.90536 97.03727 35899 ft 394 kts 262°
2026-05-05 20:47 22.89901 96.97859 35899 ft 394 kts 262°
2026-05-05 20:48 22.89262 96.91955 35903 ft 394 kts 262°
2026-05-05 20:48 22.88621 96.86046 35891 ft 395 kts 262°
2026-05-05 20:49 22.87975 96.80130 35889 ft 395 kts 262°
2026-05-05 20:49 22.87327 96.74205 35885 ft 395 kts 262°
2026-05-05 20:50 22.86786 96.69279 35891 ft 396 kts 262°
2026-05-05 20:50 22.86021 96.62348 35883 ft 396 kts 262°
2026-05-05 20:51 22.85366 96.56419 35880 ft 396 kts 262°
2026-05-05 20:51 22.84708 96.50479 35878 ft 397 kts 262°
2026-05-05 20:52 22.84044 96.44542 35871 ft 397 kts 262°
2026-05-05 20:52 22.83380 96.38597 35869 ft 398 kts 262°
2026-05-05 20:53 22.82826 96.33640 35872 ft 398 kts 262°
2026-05-05 20:53 22.82045 96.26706 35858 ft 399 kts 262°
2026-05-05 20:54 22.81370 96.20728 35856 ft 400 kts 262°
2026-05-05 20:54 22.80691 96.14743 35846 ft 400 kts 262°
2026-05-05 20:55 22.80127 96.09769 35842 ft 400 kts 262°
2026-05-05 20:55 22.79444 96.03780 35837 ft 401 kts 262°
2026-05-05 20:56 22.78759 95.97781 35832 ft 401 kts 262°
2026-05-05 20:56 22.78068 95.91774 35823 ft 401 kts 262°
2026-05-05 20:57 22.77378 95.85782 35823 ft 401 kts 262°
2026-05-05 20:57 22.76686 95.79784 35822 ft 401 kts 262°
2026-05-05 20:58 22.75991 95.73791 35823 ft 401 kts 262°
2026-05-05 20:58 22.75294 95.67799 35822 ft 401 kts 262°
2026-05-05 20:59 22.74595 95.61813 35819 ft 401 kts 262°
2026-05-05 20:59 22.73895 95.55828 35824 ft 400 kts 262°
2026-05-05 21:00 22.73193 95.49849 35824 ft 400 kts 262°
2026-05-05 21:00 22.72494 95.43916 35820 ft 399 kts 262°
2026-05-05 21:01 22.71787 95.37950 35822 ft 399 kts 262°
2026-05-05 21:01 22.71076 95.31951 35818 ft 399 kts 262°
2026-05-05 21:02 22.70368 95.25998 35817 ft 398 kts 262°
2026-05-05 21:02 22.69660 95.20055 35817 ft 398 kts 262°
2026-05-05 21:03 22.68947 95.14114 35820 ft 397 kts 262°
2026-05-05 21:03 22.68238 95.08221 35817 ft 397 kts 262°
2026-05-05 21:04 22.67524 95.02294 35818 ft 397 kts 262°
2026-05-05 21:04 22.66810 94.96374 35814 ft 396 kts 262°
2026-05-05 21:05 22.66093 94.90461 35815 ft 396 kts 262°
2026-05-05 21:05 22.65374 94.84552 35815 ft 396 kts 262°
2026-05-05 21:06 22.64653 94.78651 35816 ft 395 kts 262°
2026-05-05 21:06 22.63930 94.72748 35820 ft 395 kts 262°
2026-05-05 21:07 22.63208 94.66865 35821 ft 394 kts 262°
2026-05-05 21:07 22.62484 94.60992 35830 ft 393 kts 262°
2026-05-05 21:08 22.61760 94.55121 35826 ft 393 kts 262°
2026-05-05 21:08 22.61037 94.49296 35830 ft 393 kts 262°
2026-05-05 21:09 22.60305 94.43398 35830 ft 393 kts 262°
2026-05-05 21:09 22.59578 94.37586 35835 ft 392 kts 262°
2026-05-05 21:10 22.58849 94.31738 35835 ft 392 kts 262°
2026-05-05 21:10 22.58115 94.25901 35840 ft 392 kts 262°
2026-05-05 21:11 22.57382 94.20069 35839 ft 391 kts 262°
2026-05-05 21:11 22.56647 94.14239 35839 ft 391 kts 262°
2026-05-05 21:12 22.55911 94.08412 35844 ft 391 kts 262°
2026-05-05 21:12 22.55170 94.02586 35864 ft 391 kts 262°
2026-05-05 21:13 22.54429 93.96765 35854 ft 391 kts 262°
2026-05-05 21:13 22.53683 93.90926 35867 ft 392 kts 262°
2026-05-05 21:14 22.52938 93.85094 35890 ft 391 kts 262°
2026-05-05 21:14 22.52188 93.79264 35888 ft 391 kts 262°
2026-05-05 21:15 22.51439 93.73434 35905 ft 391 kts 262°
2026-05-05 21:15 22.50685 93.67612 35917 ft 391 kts 262°
2026-05-05 21:16 22.49932 93.61793 35928 ft 390 kts 262°
2026-05-05 21:16 22.49182 93.56016 35939 ft 390 kts 262°
2026-05-05 21:17 22.48424 93.50209 35950 ft 389 kts 262°
2026-05-05 21:17 22.47667 93.44409 35949 ft 389 kts 261°
2026-05-05 21:18 22.46909 93.38620 35947 ft 389 kts 262°
2026-05-05 21:18 22.46147 93.32831 35945 ft 389 kts 261°
2026-05-05 21:19 22.45386 93.27045 35939 ft 389 kts 261°
2026-05-05 21:19 22.44620 93.21253 35926 ft 390 kts 261°
2026-05-05 21:20 22.43853 93.15450 35917 ft 390 kts 261°
2026-05-05 21:20 22.43079 93.09653 35912 ft 389 kts 261°
2026-05-05 21:21 22.42310 93.03858 35906 ft 389 kts 261°
2026-05-05 21:21 22.41542 92.98117 35904 ft 389 kts 261°
2026-05-05 21:22 22.40769 92.92341 35890 ft 387 kts 261°
2026-05-05 21:22 22.39996 92.86594 35894 ft 386 kts 261°
2026-05-05 21:23 22.39221 92.80841 35883 ft 387 kts 261°
2026-05-05 21:23 22.38445 92.75086 35877 ft 386 kts 261°
2026-05-05 21:24 22.37665 92.69340 35870 ft 387 kts 261°
2026-05-05 21:24 22.36886 92.63587 35860 ft 387 kts 261°
2026-05-05 21:25 22.36104 92.57830 35859 ft 387 kts 261°
2026-05-05 21:25 22.35320 92.52079 35851 ft 387 kts 261°
2026-05-05 21:26 22.34534 92.46326 35853 ft 387 kts 261°
2026-05-05 21:26 22.33744 92.40576 35851 ft 387 kts 261°
2026-05-05 21:27 22.32955 92.34827 35851 ft 387 kts 261°
2026-05-05 21:27 22.32163 92.29085 35848 ft 387 kts 261°
2026-05-05 21:28 22.31378 92.23372 35845 ft 387 kts 261°
2026-05-05 21:28 22.30594 92.17621 35843 ft 387 kts 261°
2026-05-05 21:29 22.29805 92.11875 35842 ft 387 kts 261°
2026-05-05 21:29 22.29014 92.06133 35841 ft 387 kts 261°
2026-05-05 21:30 22.28221 92.00387 35840 ft 387 kts 261°
2026-05-05 21:30 22.27427 91.94643 35841 ft 386 kts 261°
2026-05-05 21:31 22.26632 91.88906 35840 ft 386 kts 261°
2026-05-05 21:31 22.26025 91.83150 35835 ft 387 kts 267°
2026-05-05 21:32 22.26407 91.77352 35836 ft 388 kts 275°
2026-05-05 21:32 22.27074 91.71570 35839 ft 388 kts 275°
2026-05-05 21:33 22.27740 91.65793 35839 ft 388 kts 275°
2026-05-05 21:33 22.28406 91.60020 35840 ft 387 kts 275°
2026-05-05 21:34 22.29069 91.54250 35842 ft 387 kts 275°
2026-05-05 21:34 22.29730 91.48483 35839 ft 387 kts 275°
2026-05-05 21:35 22.30383 91.42750 35838 ft 387 kts 275°
2026-05-05 21:35 22.31038 91.36991 35840 ft 387 kts 275°
2026-05-05 21:36 22.31768 91.31235 35838 ft 387 kts 276°
2026-05-05 21:36 22.32478 91.25479 35836 ft 386 kts 275°
2026-05-05 21:37 22.33190 91.19721 35840 ft 386 kts 275°
2026-05-05 21:37 22.33898 91.13976 35838 ft 386 kts 275°
2026-05-05 21:38 22.34603 91.08224 35833 ft 386 kts 275°
2026-05-05 21:38 22.35303 91.02512 35840 ft 386 kts 275°
2026-05-05 21:39 22.36004 90.96770 35837 ft 386 kts 275°
2026-05-05 21:39 22.36704 90.91027 35835 ft 385 kts 275°
2026-05-05 21:40 22.37400 90.85286 35838 ft 385 kts 275°
2026-05-05 21:40 22.38094 90.79543 35838 ft 385 kts 275°
2026-05-05 21:41 22.38787 90.73803 35835 ft 385 kts 275°
2026-05-05 21:41 22.39361 90.69029 35836 ft 385 kts 275°
2026-05-05 21:42 22.40050 90.63295 35836 ft 385 kts 275°
2026-05-05 21:42 22.40846 90.56625 35833 ft 385 kts 275°
2026-05-05 21:43 22.41419 90.51825 35835 ft 385 kts 275°
2026-05-05 21:43 22.42096 90.46131 35834 ft 384 kts 275°
2026-05-05 21:44 22.42775 90.40402 35831 ft 384 kts 275°
2026-05-05 21:44 22.43451 90.34674 35832 ft 384 kts 275°
2026-05-05 21:45 22.44125 90.28947 35834 ft 384 kts 275°
2026-05-05 21:45 22.44798 90.23222 35835 ft 383 kts 275°
2026-05-05 21:46 22.45467 90.17507 35831 ft 383 kts 275°
2026-05-05 21:46 22.46134 90.11788 35832 ft 383 kts 275°
2026-05-05 21:47 22.46797 90.06072 35832 ft 383 kts 275°
2026-05-05 21:47 22.47462 90.00361 35830 ft 383 kts 275°
2026-05-05 21:48 22.48117 89.94687 35830 ft 382 kts 275°
2026-05-05 21:48 22.48774 89.88981 35832 ft 382 kts 275°
2026-05-05 21:49 22.49430 89.83281 35830 ft 382 kts 275°
2026-05-05 21:49 22.50082 89.77582 35832 ft 382 kts 275°
2026-05-05 21:50 22.50731 89.71884 35834 ft 382 kts 275°
2026-05-05 21:50 22.51380 89.66189 35834 ft 381 kts 275°
2026-05-05 21:51 22.52027 89.60493 35834 ft 381 kts 275°
2026-05-05 21:51 22.52669 89.54801 35832 ft 381 kts 275°
2026-05-05 21:52 22.53631 89.46266 35829 ft 381 kts 275°
2026-05-05 21:53 22.54265 89.40607 35829 ft 381 kts 275°
2026-05-05 21:53 22.54901 89.34913 35829 ft 381 kts 275°
2026-05-05 21:54 22.55536 89.29222 35830 ft 381 kts 275°
2026-05-05 21:54 22.56169 89.23526 35827 ft 381 kts 275°
2026-05-05 21:55 22.56800 89.17832 35826 ft 381 kts 275°
2026-05-05 21:55 22.57427 89.12133 35830 ft 381 kts 275°
2026-05-05 21:56 22.58053 89.06439 35830 ft 381 kts 275°
2026-05-05 21:56 22.58675 89.00775 35828 ft 381 kts 275°
2026-05-05 21:57 22.59299 88.95072 35828 ft 381 kts 275°
2026-05-05 21:57 22.60209 88.89402 35825 ft 382 kts 278°
2026-05-05 21:58 22.61140 88.83750 35824 ft 382 kts 278°
2026-05-05 21:58 22.62103 88.78079 35827 ft 382 kts 278°
2026-05-05 21:59 22.63049 88.72419 35826 ft 382 kts 278°
2026-05-05 21:59 22.63995 88.66762 35834 ft 382 kts 278°
2026-05-05 22:00 22.64934 88.61139 35835 ft 382 kts 278°
2026-05-05 22:00 22.65883 88.55445 35837 ft 382 kts 278°
2026-05-05 22:01 22.66819 88.49819 35837 ft 382 kts 278°
2026-05-05 22:01 22.67230 88.44119 35838 ft 379 kts 267°
2026-05-05 22:02 22.66596 88.38466 35838 ft 378 kts 259°
2026-05-05 22:02 22.65667 88.32860 35836 ft 378 kts 260°
2026-05-05 22:03 22.64731 88.27254 35834 ft 378 kts 259°
2026-05-05 22:03 22.63793 88.21656 35834 ft 378 kts 259°
2026-05-05 22:04 22.62856 88.16063 35828 ft 378 kts 259°
2026-05-05 22:04 22.61917 88.10468 35820 ft 377 kts 259°
2026-05-05 22:05 22.60977 88.04884 35823 ft 377 kts 259°
2026-05-05 22:05 22.60035 87.99301 35823 ft 377 kts 259°
2026-05-05 22:06 22.59091 87.93721 35824 ft 377 kts 259°
2026-05-05 22:06 22.58150 87.88170 35824 ft 377 kts 259°
2026-05-05 22:07 22.57202 87.82590 35824 ft 377 kts 259°
2026-05-05 22:07 22.56255 87.77020 35824 ft 377 kts 259°
2026-05-05 22:08 22.55305 87.71450 35825 ft 376 kts 259°
2026-05-05 22:08 22.54352 87.65883 35827 ft 376 kts 259°
2026-05-05 22:09 22.53398 87.60316 35826 ft 376 kts 259°
2026-05-05 22:09 22.52443 87.54751 35829 ft 376 kts 259°
2026-05-05 22:10 22.51487 87.49188 35829 ft 376 kts 259°
2026-05-05 22:10 22.50528 87.43624 35832 ft 376 kts 259°
2026-05-05 22:11 22.49566 87.38065 35831 ft 376 kts 259°
2026-05-05 22:11 22.48610 87.32541 35831 ft 376 kts 259°
2026-05-05 22:12 22.47647 87.26985 35832 ft 376 kts 259°
2026-05-05 22:12 22.46679 87.21419 35835 ft 376 kts 259°
2026-05-05 22:13 22.45709 87.15858 35838 ft 376 kts 259°
2026-05-05 22:13 22.44737 87.10295 35838 ft 377 kts 259°
2026-05-05 22:14 22.43765 87.04733 35838 ft 376 kts 259°
2026-05-05 22:14 22.42790 86.99172 35838 ft 377 kts 259°
2026-05-05 22:15 22.41813 86.93614 35844 ft 377 kts 259°
2026-05-05 22:15 22.40833 86.88051 35844 ft 377 kts 259°
2026-05-05 22:16 22.39852 86.82486 35841 ft 377 kts 259°
2026-05-05 22:16 22.38868 86.76920 35846 ft 377 kts 259°
2026-05-05 22:17 22.37888 86.71390 35850 ft 377 kts 259°
2026-05-05 22:17 22.36898 86.65819 35849 ft 378 kts 259°
2026-05-05 22:18 22.35906 86.60247 35851 ft 378 kts 259°
2026-05-05 22:18 22.34913 86.54674 35855 ft 378 kts 259°
2026-05-05 22:19 22.33918 86.49098 35860 ft 378 kts 259°
2026-05-05 22:19 22.32921 86.43525 35863 ft 378 kts 259°
2026-05-05 22:20 22.31920 86.37956 35864 ft 378 kts 259°
2026-05-05 22:20 22.30919 86.32382 35870 ft 378 kts 259°
2026-05-05 22:21 22.29915 86.26805 35875 ft 378 kts 259°
2026-05-05 22:21 22.28906 86.21225 35872 ft 379 kts 259°
2026-05-05 22:22 22.27897 86.15639 35876 ft 379 kts 259°
2026-05-05 22:22 22.26927 86.10036 35877 ft 380 kts 260°
2026-05-05 22:23 22.26012 86.04416 35882 ft 380 kts 260°
2026-05-05 22:23 22.25059 85.98797 35885 ft 381 kts 260°
2026-05-05 22:24 22.24121 85.93171 35890 ft 381 kts 260°